THOR ABLESTAR DEB, 1521

Orbit data source: Space-Track

THOR ABLESTAR DEB, 1521 is space debris in LEO originally from a launch on Fri, 13 Aug 1965 UTC launched from the Air Force Western Test Range (AFWTR). Debris objects in space refer to the collection of defunct objects orbiting the Earth. Examples of debris include non-operational satellites, rocket bodies, and fragments generated from explosions, collisions, or faulty payload assembly.

Loading next visibility...
Identifier
1521, 1965-065K
Orbit
LEO
Country
Flag of USUS
Related business
Manufacturer
NRL
Mission
Spacecraft
Bus & Motor
Unknown
Mass
Unknown
Launch date (UTC)
1965-08-13 (61 years ago)
Launch vehicle
Unknown
Launch site
Air Force Western Test Range (AFWTR)
Object type
Payload
Rocket body
Debris
Shape & HBR
Unknown shape, 0.2 m
Radar Cross Section
Medium (>0.1 m² and <1 m²)

Expand to show TLE details & history
Last TLE update: 20 hours ago

TLE from 20 hours ago
0 THOR ABLESTAR DEB
1 01521U 65065K   26207.51091073  .00000041  00000-0  64324-4 0  9992
2 01521  90.0202 210.3928 0070425 151.2340   3.1622 13.33285968964644
Epoch: 2026-07-26T12:15Z
TLE epoch observation values (Epoch: 2026-07-26T12:15:42.687Z)
Latitude
25.5877°
Longitude
-97.73323°
Altitude
1,084.696 km
Speed
7.338 km/s
True Right ascension
02h 01m 36s
True Declination
25° 27' 35"
Sunlit
Object was in daylight at epoch
Visualization orbit readout
Latitude
Unknown
Longitude
Unknown
Altitude
Unknown
Speed
Unknown
Apparent Right ascension
Unknown
Apparent Declination
Unknown
Sunlit
N/A
Visualization observer readout
Local Sidereal Time
21:11:00
Azimuth
Unknown
Elevation
Unknown
Doppler factor
Unknown
Orbital elements
Apogee altitude
1,184.355 km
Perigee altitude
1,078.582 km
Semi-major axis
7,509.605 km
Eccentricity
0.00704
Inclination
90.0202°
RAAN
210.3928°
Arg. of periapsis
151.234°
True anomaly
3.20711°
Mean anomaly
3.1622°
Eccentric anomaly
3.18462°
Mean motion
3.33517 °/min
Orbital period
107.94 mins
BSTAR
0.000064324
Loading maneuver chart data...
Computing Atmospheric mass density...
Loading historical data...
Loading historical data...
Loading historical data...
Loading historical data...
Loading historical data...
Loading historical data...
Loading historical data...

Documentation

Showing up to 5 results
|